Location: Freistadt
(48.5112°N, 14.5013°E)
Time: 01:22:33
(UTC+02:00)

O/OREOS (USA 219) - Pass Details

Date: 07 April 2023
Orbit: 621 x 646 km, 72.0° (Epoch: 22 May)

Event Time Altitude Azimuth Distance (km) Brightness Sun altitude
Exits shadow 04:48:07 28° 219° (SW) 1,203 ? -16.3°
Maximum altitude 04:50:28 71° 297° (WNW) 676 ? -16.0°
Drops below altitude 10° 04:55:02 10° 23° (NNE) 2,027 ? -15.3°
Sets 04:57:18 0° 25° (NNE) 2,935 ? -15.0°
